Location: Long Island Community Building
(39.9491°N, 99.5338°W)
Time: 00:23:40
(UTC+00:00)

Cosmos 1371 Rocket - Pass Details

Date: 06 December 2019
Orbit: 754 x 789 km, 74.0° (Epoch: 24 January)

Event Time Altitude Azimuth Distance (km) Brightness Sun altitude
Rises 12:12:16 0° 216° (SW) 3,236 7.0 -17.3°
Reaches altitude 10° 12:14:46 10° 223° (SW) 2,307 6.2 -16.8°
Maximum altitude 12:19:43 42° 294° (WNW) 1,087 4.3 -15.9°
Drops below altitude 10° 12:24:40 10° 5° (N) 2,300 6.4 -15.0°
Sets 12:27:09 0° 13° (NNE) 3,226 7.2 -14.6°
